Simultaneous Nadir Overpasses (SNOs) Predictions

Prediction of SNOs between GOES-14 and NOAA-20 Satellite Orbit:

Table of predicted SNOs for the next 14.0 days since TLE Epoch: 6/25/2022
Index Date Time (GOES-14) GOES-14 Lat,Lon NOAA-20 Lat,Lon Distance(km) Time Diff (sec)
1 06/26/2022 08:24:19 -0.14,-104.54 0.00,-105.10 64.68 80
2 06/27/2022 08:08:14 -0.13,-104.54 -0.99,-100.56 452.81 80
3 06/28/2022 20:27:31 0.16,-104.83 -0.09,-105.89 120.87 80
4 06/29/2022 20:11:25 0.15,-104.84 0.91,-101.35 396.45 80
5 07/01/2022 08:30:32 -0.19,-104.56 0.30,-106.61 235.12 80
6 07/02/2022 08:14:26 -0.17,-104.56 -0.70,-102.08 282.38 80
7 07/03/2022 20:33:44 0.20,-104.86 -0.38,-107.40 290.84 80
8 07/04/2022 20:17:38 0.19,-104.86 0.62,-102.87 226.81 80
9 07/06/2022 08:36:44 -0.22,-104.58 0.59,-108.13 404.45 80
10 07/07/2022 08:20:39 -0.21,-104.59 -0.41,-103.59 113.03 80
11 07/08/2022 20:39:56 0.24,-104.88 -0.66,-108.92 460.47 80
